Location: Peebles
(55.6412°N, 3.1714°W)
Time: 11:00:26
(UTC+01:00)

FENGYUN 1C DEB - Pass Details

Date: 09 July 2022
Orbit: 580 x 1160 km, 99.3° (Epoch: 14 August)

Event Time Altitude Azimuth Distance (km) Brightness Sun altitude
Exits shadow 01:34:37 15° 198° (SSW) 2,358 ? -11.9°
Maximum altitude 01:39:26 43° 265° (W) 1,430 ? -11.8°
Drops below altitude 10° 01:45:53 10° 335° (NNW) 2,996 ? -11.8°
Sets 01:48:46 0° 342° (NNW) 4,004 ? -11.7°
